Truth Or Consequences, NM

5:10 AM MST on December 17, 2017 (GMT -0700)
Truth Or Consequences Municipal

Weather History for KTCS - March, 2014

Change the Weather History Date:

Wednesday, March 5, 2014

  Actual Average Record
Temperature  
Mean Temperature 55 °F -  
Max Temperature 67 °F 63 °F 75 °F (2009)
Min Temperature 42 °F 36 °F 21 °F (2002)
Degree Days  
Heating Degree Days 10    
Month to date heating degree days 62  
Since 1 July heating degree days 2478  
Cooling Degree Days 0    
Month to date cooling degree days 0  
Year to date cooling degree days 1  
Growing Degree Days 4 (Base 50)    
Moisture  
Dew Point 26 °F    
Average Humidity 40    
Maximum Humidity 61    
Minimum Humidity 18    
Precipitation  
Precipitation 0.00 in - 0.05 in (2004)
Month to date precipitation 0.08  
Year to date precipitation 0.08  
Sea Level Pressure  
Sea Level Pressure 29.96 in    
Wind  
Wind Speed 7 mph (NNW)    
Max Wind Speed 23 mph    
Max Gust Speed 28 mph    
Visibility 10 miles    
Events      
T = Trace of Precipitation, MM = Missing Value Source: NWS Daily Summary

Daily Weather History Graph

Daily Weather History Graph

Search for Another Location

Airport or City:

Trip Planner

Search our weather history database for the weather conditions in past years. The results will help you decide how hot, cold, wet, or windy it might be!

Date:

Astronomy

Mar. 05, 2014 Rise Set
Actual Time 6:32 AM MST 6:09 PM MST
Civil Twilight 6:07 AM MST 6:34 PM MST
Nautical Twilight 5:38 AM MST 7:02 PM MST
Astronomical Twilight 5:10 AM MST 7:31 PM MST
Moon 9:15 AM MST (3/5) 11:04 PM MST (3/5)
Length of Visible Light 12h 26m
Length of Day
11h 37m
Waxing Crescent, 24% of the Moon is Illuminated
Mar 5
Waxing Crescent
Mar 8
First Quarter
Mar 16
Full
Mar 23
Last Quarter
Mar 30
New

Hourly Weather History & Observations

Time (MST) Temp. Windchill Dew Point Humidity Pressure Visibility Wind Dir Wind Speed Gust Speed Precip Events Conditions
12:53 AM 48.9 °F - 35.1 °F 59% 29.85 in 10.0 mi NW 12.7 mph - N/A   Mostly Cloudy
1:53 AM 50.0 °F - 33.1 °F 52% 29.85 in 10.0 mi WNW 20.7 mph 27.6 mph N/A   Clear
2:53 AM 48.0 °F - 32.0 °F 54% 29.85 in 10.0 mi NW 9.2 mph - N/A   Clear
3:53 AM 48.0 °F - 32.0 °F 54% 29.86 in 10.0 mi NW 8.1 mph - N/A   Clear
4:53 AM 45.0 °F 38.9 °F 30.9 °F 58% 29.87 in 10.0 mi WNW 12.7 mph - N/A   Clear
5:53 AM 43.0 °F - 28.9 °F 58% 29.93 in 10.0 mi Calm Calm - N/A   Clear
6:53 AM 42.1 °F 40.2 °F 28.9 °F 60% 29.97 in 10.0 mi WNW 3.5 mph - N/A   Clear
7:53 AM 48.9 °F - 28.9 °F 46% 29.98 in 10.0 mi NW 8.1 mph - N/A   Clear
8:53 AM 53.1 °F - 30.0 °F 41% 29.99 in 10.0 mi NNE 12.7 mph 16.1 mph N/A   Clear
9:53 AM 55.0 °F - 30.9 °F 40% 30.00 in 10.0 mi Variable 6.9 mph - N/A   Clear
10:53 AM 59.0 °F - 28.9 °F 32% 29.99 in 10.0 mi Variable 4.6 mph - N/A   Clear
11:53 AM 61.0 °F - 25.0 °F 25% 29.97 in 10.0 mi Variable 4.6 mph - N/A   Clear
12:53 PM 62.1 °F - 24.1 °F 23% 29.96 in 10.0 mi East 5.8 mph 16.1 mph N/A   Clear
1:53 PM 64.0 °F - 23.0 °F 21% 29.94 in 10.0 mi Variable 5.8 mph - N/A   Clear
2:53 PM 64.9 °F - 21.9 °F 19% 29.93 in 10.0 mi ESE 9.2 mph - N/A   Clear
3:53 PM 66.0 °F - 21.0 °F 18% 29.94 in 10.0 mi East 10.4 mph 16.1 mph N/A   Clear
4:53 PM 64.9 °F - 21.0 °F 19% 29.96 in 10.0 mi East 8.1 mph - N/A   Clear
5:53 PM 61.0 °F - 19.9 °F 21% 29.99 in 10.0 mi ESE 4.6 mph - N/A   Clear
6:53 PM 55.9 °F - 21.9 °F 27% 30.03 in 10.0 mi East 3.5 mph - N/A   Clear
7:53 PM 57.0 °F - 23.0 °F 27% 30.02 in 10.0 mi Calm Calm - N/A   Clear
8:53 PM 54.0 °F - 23.0 °F 30% 30.02 in 10.0 mi Calm Calm - N/A   Clear
9:53 PM 48.0 °F - 19.0 °F 32% 30.06 in 10.0 mi WNW 4.6 mph - N/A   Clear
10:53 PM 46.0 °F 42.5 °F 19.0 °F 34% 30.06 in 10.0 mi NW 6.9 mph - N/A   Clear
11:53 PM 45.0 °F 41.2 °F 19.9 °F 37% 30.06 in 10.0 mi WNW 6.9 mph - N/A   Clear